sat.trackr.live / text

‹ back to catalog

HULIANWANG DIGUI-86

NORAD 65821 · 2025-220E

PAYLOAD ACTIVE UNKNOWN

§ Identity

Operator
Country
PRC
Launch date
2025-09-27
Launch site
TAISC
Launch vehicle
Mass (kg)
RCS (m²)

External: N2YO · Heavens-Above · Gunter

§ Orbital elements

Epoch: 2026-09-20T09:36:48.316608Z

Period
108.73 min
Inclination
86.5035°
Eccentricity
0.0001479
Mean motion
13.24413048 rev/d
Perigee alt
1,166.8 km
Apogee alt
1,169.0 km
Semi-major
7,546.0 km
B*
9.5324e-5
RAAN
11.6888°
Arg perigee
110.4982°
Mean anomaly
249.6311°
Rev number
4,752

§ Raw data

HULIANWANG DIGUI-861 65821U 25220E   26263.40055922  .00000056  00000+0  95324-4 0  99962 65821  86.5035  11.6888 0001479 110.4982 249.6311 13.24413048 47523

JSON: /api/v1/satellites/65821 · /tle

For live sub-satellite position, see the globe view (requires WebGL).

§ Visibility from observer

Set your observer location to see the next 7 days of passes ≥ 10°. The values pass through the URL so the page stays shareable.

No JS? Fill the form by hand. The geolocation button needs JavaScript.